Weather in El'dikan

Russia / Sakha (Yakutia) Republic     60°46′18″N   135°09′28″E
temp.,
°C
wind,
m/s
gust,
m/s
humid.,
%
clouds,
%
prec.,
mm/h
press.,
hPa
HPBL,
m
26 february, fri
fri2600:00−33nw1197100 0.0 103419
03:00−33nnw0198100 0.0 103419
06:00−35wsw009992 0.0 103519
09:00−32sse009783 0.0 103663
12:00−27s019058 0.0 1036367
15:00−26sw018879 0.0 1034473
18:00−31ese119567 0.0 103619
21:00−33ese119533 0.0 103619
27 february, sat
sat2700:00−34ese11960 0.0 103519
03:00−35ese11950 0.0 103419
06:00−36e11960 0.0 103419
09:00−32e12930 0.0 103285
12:00−25se12881 0.0 1029352
15:00−23ne138612 0.0 1025382
18:00−27n22952 0.0 102319
21:00−29nne12951 0.0 102119
28 february, sun
sun2800:00−29nne129287 0.0 101819
03:00−28nnw119093 0.0 101619
06:00−28n0089100 0.0 101519
09:00−23se1385100 0.0 1016148
12:00−18s2493100 0.1 1016534
15:00−18sw3493100 0.4 1017559
18:00−21sw2299100 0.2 101973
21:00−24w2696100 0.3 1021236
1 march, mon
mon100:00−27wsw1296100 0.0 102219
03:00−28wsw1197100 0.1 102419
06:00−28wsw1198100 0.1 102522
09:00−26wnw1396100 0.1 1025327
12:00−25w2391100 0.1 1025701
15:00−24wnw2388100 0.2 1025931
18:00−25w2398100 0.1 102591
21:00−26wnw2599100 0.2 1026160
2 march, tue
tue200:00−27wnw2599100 0.1 1025138
03:00−28wnw2499100 0.3 1025126
06:00−28wnw2399100 0.2 102693
09:00−27nw2496100 0.3 1026354
12:00−25nw2384100 0.1 1026894
15:00−25nw2385100 0.1 1025965
18:00−28nnw1294100 0.0 102619
21:00−32nnw129898 0.1 102619